DLH323 LICJ-EDDF

Flight info

Callsign DLH323
Flight time 1h 55m
Altitude 34000
Route LURON DCT DORAS DCT NIKMA DCT UNIMI L12 MOGTI Q163 ETASA T163 SPESA SPESA5C
Aircraft A321/M-SDE3FGHIRWY/LB1

Departure

Time 2026-04-14 11:59
Airport Falcone–Borsellino Airport (LICJ)

Arrival

Time 2026-04-14 13:54
Airport Frankfurt Main Airport (EDDF)
Time Latitude Longitude Altitude Speed Heading
2026-04-14 10:57 38.18496 13.10466 65 ft 0 kts 337°
2026-04-14 11:48 38.18484 13.10472 58 ft 3 kts 337°
2026-04-14 11:48 38.18466 13.10482 60 ft 3 kts 337°
2026-04-14 11:48 38.18447 13.10492 61 ft 3 kts 337°
2026-04-14 11:48 38.18429 13.10502 58 ft 3 kts 340°
2026-04-14 11:49 38.18410 13.10508 58 ft 3 kts
2026-04-14 11:49 38.18391 13.10502 58 ft 3 kts 20°
2026-04-14 11:49 38.18387 13.10501 57 ft 0 kts 20°
2026-04-14 11:51 38.18388 13.10501 57 ft 1 kts 20°
2026-04-14 11:51 38.18414 13.10513 58 ft 7 kts 20°
2026-04-14 11:52 38.18456 13.10571 62 ft 10 kts 64°
2026-04-14 11:52 38.18485 13.10657 60 ft 11 kts 66°
2026-04-14 11:52 38.18504 13.10741 64 ft 10 kts 93°
2026-04-14 11:52 38.18483 13.10827 62 ft 10 kts 110°
2026-04-14 11:53 38.18467 13.10904 65 ft 8 kts 104°
2026-04-14 11:53 38.18422 13.10940 65 ft 8 kts 187°
2026-04-14 11:53 38.18387 13.10882 56 ft 10 kts 246°
2026-04-14 11:53 38.18351 13.10775 64 ft 16 kts 247°
2026-04-14 11:54 38.18303 13.10631 59 ft 18 kts 247°
2026-04-14 11:54 38.18253 13.10479 63 ft 19 kts 246°
2026-04-14 11:54 38.18200 13.10324 63 ft 19 kts 247°
2026-04-14 11:54 38.18147 13.10167 65 ft 20 kts 246°
2026-04-14 11:55 38.18092 13.10005 57 ft 20 kts 247°
2026-04-14 11:55 38.18037 13.09839 62 ft 21 kts 246°
2026-04-14 11:55 38.17980 13.09670 56 ft 21 kts 247°
2026-04-14 11:55 38.17923 13.09501 64 ft 21 kts 247°
2026-04-14 11:56 38.17867 13.09335 66 ft 19 kts 247°
2026-04-14 11:56 38.17818 13.09189 66 ft 18 kts 247°
2026-04-14 11:56 38.17764 13.09027 62 ft 17 kts 245°
2026-04-14 11:56 38.17704 13.08921 64 ft 15 kts 218°
2026-04-14 11:57 38.17623 13.08844 64 ft 14 kts 217°
2026-04-14 11:57 38.17549 13.08774 63 ft 11 kts 216°
2026-04-14 11:57 38.17500 13.08761 66 ft 6 kts 159°
2026-04-14 11:57 38.17482 13.08802 69 ft 5 kts 83°
2026-04-14 11:58 38.17504 13.08863 61 ft 16 kts 66°
2026-04-14 11:58 38.17643 13.09278 72 ft 85 kts 67°
2026-04-14 11:58 38.17956 13.10212 66 ft 143 kts 67°
2026-04-14 11:58 38.18395 13.11545 194 ft 176 kts 65°
2026-04-14 11:59 38.18875 13.12998 805 ft 180 kts 65°
2026-04-14 11:59 38.19374 13.14460 1395 ft 186 kts 65°
2026-04-14 11:59 38.19924 13.16043 1610 ft 204 kts 66°
2026-04-14 11:59 38.20515 13.17779 1748 ft 225 kts 66°
2026-04-14 12:00 38.21334 13.19560 1992 ft 245 kts 42°
2026-04-14 12:00 38.22820 13.20632 2491 ft 255 kts 23°
2026-04-14 12:00 38.24480 13.21505 3128 ft 261 kts 22°
2026-04-14 12:00 38.26173 13.22394 3751 ft 266 kts 23°
2026-04-14 12:01 38.27912 13.23309 4356 ft 273 kts 23°
2026-04-14 12:01 38.29688 13.24248 4981 ft 278 kts 23°
2026-04-14 12:01 38.31494 13.25209 5581 ft 284 kts 24°
2026-04-14 12:01 38.33330 13.26188 6202 ft 288 kts 24°
2026-04-14 12:02 38.35190 13.27182 6816 ft 292 kts 24°
2026-04-14 12:02 38.37073 13.28190 7443 ft 295 kts 23°
2026-04-14 12:02 38.38976 13.29197 8087 ft 297 kts 21°
2026-04-14 12:02 38.40998 13.29816 8677 ft 302 kts
2026-04-14 12:03 38.43103 13.29734 9268 ft 305 kts 348°
2026-04-14 12:03 38.45147 13.28989 9863 ft 307 kts 339°
2026-04-14 12:03 38.47206 13.28094 10177 ft 321 kts 339°
2026-04-14 12:03 38.49391 13.27155 10307 ft 341 kts 340°
2026-04-14 12:04 38.51700 13.26170 10433 ft 359 kts 340°
2026-04-14 12:04 38.54098 13.25153 10564 ft 375 kts 340°
2026-04-14 12:04 38.56608 13.24094 10928 ft 383 kts 340°
2026-04-14 12:04 38.59152 13.23017 11423 ft 387 kts 340°
2026-04-14 12:05 38.61720 13.21925 11951 ft 390 kts 340°
2026-04-14 12:05 38.64306 13.20823 12474 ft 393 kts 340°
2026-04-14 12:05 38.66913 13.19708 12987 ft 396 kts 340°
2026-04-14 12:05 38.69541 13.18583 13491 ft 400 kts 340°
2026-04-14 12:06 38.72186 13.17451 13968 ft 403 kts 340°
2026-04-14 12:06 38.74860 13.16309 14409 ft 406 kts 340°
2026-04-14 12:06 38.77548 13.15158 14863 ft 409 kts 340°
2026-04-14 12:06 38.80260 13.13993 15324 ft 412 kts 340°
2026-04-14 12:07 38.82985 13.12821 15783 ft 415 kts 340°
2026-04-14 12:07 38.85771 13.11807 16225 ft 418 kts 348°
2026-04-14 12:07 38.88663 13.11359 16663 ft 420 kts 357°
2026-04-14 12:07 38.91595 13.11151 17096 ft 423 kts 357°
2026-04-14 12:08 38.94545 13.10938 17520 ft 426 kts 357°
2026-04-14 12:08 38.97516 13.10717 17922 ft 429 kts 357°
2026-04-14 12:08 39.00507 13.10490 18310 ft 432 kts 357°
2026-04-14 12:08 39.03477 13.10264 18644 ft 435 kts 357°
2026-04-14 12:09 39.06510 13.10033 18971 ft 438 kts 357°
2026-04-14 12:09 39.09558 13.09803 19337 ft 440 kts 357°
2026-04-14 12:09 39.12626 13.09575 19674 ft 443 kts 357°
2026-04-14 12:09 39.15712 13.09345 20016 ft 446 kts 357°
2026-04-14 12:10 39.18822 13.09108 20370 ft 448 kts 357°
2026-04-14 12:10 39.21945 13.08868 20705 ft 451 kts 357°
2026-04-14 12:10 39.25087 13.08631 21043 ft 454 kts 357°
2026-04-14 12:10 39.28250 13.08392 21381 ft 457 kts 357°
2026-04-14 12:11 39.30353 13.08232 21615 ft 458 kts 357°
2026-04-14 12:11 39.34620 13.07915 22090 ft 461 kts 357°
2026-04-14 12:11 39.37829 13.07676 22422 ft 463 kts 357°
2026-04-14 12:11 39.39970 13.07515 22640 ft 465 kts 357°
2026-04-14 12:12 39.43210 13.07270 22961 ft 468 kts 357°
2026-04-14 12:12 39.46466 13.07023 23282 ft 470 kts 357°
2026-04-14 12:12 39.49738 13.06774 23578 ft 473 kts 357°
2026-04-14 12:12 39.53034 13.06521 23840 ft 475 kts 357°
2026-04-14 12:13 39.56339 13.06265 24129 ft 476 kts 357°
2026-04-14 12:13 39.59651 13.05973 24379 ft 479 kts 353°
2026-04-14 12:13 39.62947 13.05275 24627 ft 481 kts 349°
2026-04-14 12:13 39.66248 13.04483 24884 ft 484 kts 349°
2026-04-14 12:14 39.69566 13.03684 25125 ft 486 kts 349°
2026-04-14 12:14 39.72900 13.02878 25381 ft 489 kts 349°
2026-04-14 12:14 39.76251 13.02067 25648 ft 490 kts 349°
2026-04-14 12:14 39.79610 13.01257 25917 ft 492 kts 348°
2026-04-14 12:15 39.82991 13.00442 26160 ft 495 kts 348°
2026-04-14 12:15 39.86385 12.99619 26406 ft 497 kts 348°
2026-04-14 12:15 39.89799 12.98790 26638 ft 500 kts 348°
2026-04-14 12:15 39.93181 12.97968 26856 ft 502 kts 348°
2026-04-14 12:16 39.96621 12.97131 27080 ft 504 kts 348°
2026-04-14 12:16 40.00081 12.96289 27294 ft 506 kts 348°
2026-04-14 12:16 40.03553 12.95443 27498 ft 508 kts 348°
2026-04-14 12:16 40.07037 12.94598 27697 ft 510 kts 348°
2026-04-14 12:17 40.10530 12.93749 27880 ft 512 kts 348°
2026-04-14 12:17 40.14039 12.92889 28067 ft 514 kts 348°
2026-04-14 12:17 40.17554 12.92022 28322 ft 514 kts 348°
2026-04-14 12:17 40.21061 12.91159 28601 ft 513 kts 348°
2026-04-14 12:18 40.24567 12.90299 28884 ft 512 kts 348°
2026-04-14 12:18 40.28076 12.89440 29145 ft 512 kts 347°
2026-04-14 12:18 40.31578 12.88581 29399 ft 512 kts 347°
2026-04-14 12:18 40.35086 12.87721 29642 ft 513 kts 347°
2026-04-14 12:19 40.38593 12.86861 29895 ft 513 kts 347°
2026-04-14 12:19 40.42102 12.85998 30116 ft 513 kts 347°
2026-04-14 12:19 40.45558 12.85146 30396 ft 511 kts 347°
2026-04-14 12:19 40.49045 12.84287 30664 ft 509 kts 347°
2026-04-14 12:20 40.52526 12.83428 30922 ft 508 kts 347°
2026-04-14 12:20 40.55992 12.82574 31174 ft 507 kts 347°
2026-04-14 12:20 40.59453 12.81719 31419 ft 505 kts 347°
2026-04-14 12:20 40.62911 12.80862 31658 ft 504 kts 347°
2026-04-14 12:21 40.66349 12.80009 31958 ft 501 kts 347°
2026-04-14 12:21 40.69772 12.79158 32260 ft 499 kts 347°
2026-04-14 12:21 40.73185 12.78312 32529 ft 497 kts 347°
2026-04-14 12:21 40.76577 12.77470 32766 ft 496 kts 347°
2026-04-14 12:22 40.79966 12.76621 33034 ft 495 kts 348°
2026-04-14 12:22 40.83350 12.75770 33274 ft 493 kts 348°
2026-04-14 12:22 40.86717 12.74923 33514 ft 492 kts 348°
2026-04-14 12:22 40.90071 12.74084 33793 ft 490 kts 348°
2026-04-14 12:23 40.93418 12.73248 33904 ft 489 kts 348°
2026-04-14 12:23 40.96761 12.72413 33916 ft 488 kts 348°
2026-04-14 12:23 41.03398 12.70752 33918 ft 488 kts 348°
2026-04-14 12:24 41.10062 12.69077 33911 ft 486 kts 348°
2026-04-14 12:24 41.16745 12.67390 33914 ft 485 kts 348°
2026-04-14 12:25 41.23329 12.65735 33912 ft 485 kts 348°
2026-04-14 12:25 41.29974 12.64055 33913 ft 485 kts 348°
2026-04-14 12:26 41.36607 12.62370 33925 ft 485 kts 348°
2026-04-14 12:26 41.43242 12.60685 33927 ft 485 kts 348°
2026-04-14 12:27 41.49813 12.59011 33939 ft 485 kts 348°
2026-04-14 12:27 41.56435 12.57320 33937 ft 484 kts 348°
2026-04-14 12:28 41.63005 12.55644 33944 ft 484 kts 348°
2026-04-14 12:28 41.69620 12.53959 33944 ft 483 kts 348°
2026-04-14 12:29 41.76224 12.52266 33941 ft 483 kts 348°
2026-04-14 12:29 41.82825 12.50568 33943 ft 483 kts 348°
2026-04-14 12:30 41.89414 12.48862 33914 ft 482 kts 348°
2026-04-14 12:30 41.96007 12.47161 33910 ft 482 kts 348°
2026-04-14 12:31 42.02582 12.45457 33916 ft 481 kts 348°
2026-04-14 12:31 42.09114 12.43770 33916 ft 480 kts 348°
2026-04-14 12:32 42.15670 12.42064 33916 ft 480 kts 348°
2026-04-14 12:32 42.22224 12.40350 33933 ft 479 kts 349°
2026-04-14 12:33 42.28769 12.38640 33922 ft 479 kts 349°
2026-04-14 12:33 42.35310 12.36934 33921 ft 479 kts 349°
2026-04-14 12:34 42.41846 12.35226 33920 ft 478 kts 349°
2026-04-14 12:34 42.48367 12.33508 33920 ft 477 kts 349°
2026-04-14 12:35 42.54884 12.31785 33920 ft 477 kts 349°
2026-04-14 12:35 42.61399 12.30067 33916 ft 477 kts 349°
2026-04-14 12:36 42.67863 12.28349 33923 ft 476 kts 349°
2026-04-14 12:36 42.74367 12.26629 33924 ft 476 kts 349°
2026-04-14 12:37 42.80867 12.24918 33921 ft 476 kts 349°
2026-04-14 12:37 42.87368 12.23199 33926 ft 476 kts 348°
2026-04-14 12:38 42.97120 12.20588 33932 ft 476 kts 348°
2026-04-14 12:39 43.03617 12.18847 33936 ft 476 kts 348°
2026-04-14 12:39 43.10108 12.17091 33934 ft 476 kts 348°
2026-04-14 12:40 43.16601 12.15303 33931 ft 476 kts 348°
2026-04-14 12:40 43.23089 12.13520 33944 ft 475 kts 348°
2026-04-14 12:41 43.29530 12.11741 33944 ft 475 kts 347°
2026-04-14 12:41 43.36003 12.09926 33943 ft 475 kts 348°
2026-04-14 12:42 43.42477 12.08119 33952 ft 474 kts 347°
2026-04-14 12:42 43.48949 12.06322 33956 ft 474 kts 348°
2026-04-14 12:43 43.55408 12.04528 33957 ft 473 kts 348°
2026-04-14 12:43 43.61860 12.02724 33972 ft 472 kts 347°
2026-04-14 12:44 43.68293 12.00920 33980 ft 471 kts 347°
2026-04-14 12:44 43.74676 11.99121 33975 ft 470 kts 347°
2026-04-14 12:45 43.84293 11.96416 33981 ft 470 kts 347°
2026-04-14 12:45 43.90706 11.94608 33983 ft 470 kts 347°
2026-04-14 12:46 43.97108 11.92800 33983 ft 470 kts 347°
2026-04-14 12:46 44.03525 11.90983 33995 ft 469 kts 347°
2026-04-14 12:47 44.09932 11.89159 34001 ft 469 kts 347°
2026-04-14 12:47 44.16292 11.87339 33999 ft 469 kts 347°
2026-04-14 12:48 44.22684 11.85510 33998 ft 469 kts 347°
2026-04-14 12:48 44.29076 11.83683 34003 ft 469 kts 347°
2026-04-14 12:49 44.35471 11.81850 34007 ft 469 kts 347°
2026-04-14 12:49 44.41862 11.80017 34005 ft 469 kts 347°
2026-04-14 12:50 44.51453 11.77241 34009 ft 469 kts 347°
2026-04-14 12:51 44.57812 11.75403 34015 ft 469 kts 347°
2026-04-14 12:51 44.64255 11.73537 34015 ft 470 kts 347°
2026-04-14 12:52 44.70621 11.71688 34017 ft 470 kts 347°
2026-04-14 12:52 44.77042 11.69821 34012 ft 471 kts 347°
2026-04-14 12:53 44.83459 11.67952 34010 ft 471 kts 346°
2026-04-14 12:53 44.89876 11.66071 34004 ft 471 kts 346°
2026-04-14 12:54 44.96295 11.64178 34013 ft 471 kts 346°
2026-04-14 12:54 45.02711 11.62292 34013 ft 471 kts 346°
2026-04-14 12:55 45.09096 11.60425 34011 ft 471 kts 346°
2026-04-14 12:55 45.15514 11.58537 34026 ft 471 kts 346°
2026-04-14 12:56 45.21920 11.56631 34025 ft 470 kts 346°
2026-04-14 12:56 45.28316 11.54734 34025 ft 469 kts 346°
2026-04-14 12:57 45.34705 11.52844 34022 ft 469 kts 347°
2026-04-14 12:57 45.41084 11.50949 34024 ft 468 kts 347°
2026-04-14 12:58 45.47461 11.49041 34020 ft 467 kts 346°
2026-04-14 12:58 45.53813 11.47131 34013 ft 466 kts 346°
2026-04-14 12:59 45.60168 11.45219 34011 ft 467 kts 347°
2026-04-14 12:59 45.66515 11.43313 34016 ft 465 kts 347°
2026-04-14 13:00 45.72837 11.41422 34010 ft 463 kts 347°
2026-04-14 13:00 45.79143 11.39524 34009 ft 463 kts 347°
2026-04-14 13:01 45.85449 11.37607 34004 ft 463 kts 347°
2026-04-14 13:01 45.91716 11.35689 34002 ft 463 kts 347°
2026-04-14 13:02 45.98029 11.33767 33995 ft 464 kts 347°
2026-04-14 13:02 46.04348 11.31850 33992 ft 464 kts 347°
2026-04-14 13:03 46.09596 11.30254 33988 ft 463 kts 347°
2026-04-14 13:03 46.15902 11.28329 33994 ft 464 kts 347°
2026-04-14 13:04 46.22216 11.26392 33999 ft 464 kts 347°
2026-04-14 13:04 46.28518 11.24440 34084 ft 463 kts 347°
2026-04-14 13:05 46.34819 11.22506 34083 ft 462 kts 347°
2026-04-14 13:05 46.41108 11.20569 33993 ft 462 kts 347°
2026-04-14 13:06 46.47389 11.18626 33989 ft 462 kts 347°
2026-04-14 13:06 46.53678 11.16669 33997 ft 461 kts 347°
2026-04-14 13:07 46.59962 11.14706 34009 ft 462 kts 347°
2026-04-14 13:07 46.66240 11.12740 34010 ft 462 kts 347°
2026-04-14 13:08 46.72529 11.10782 34023 ft 462 kts 347°
2026-04-14 13:08 46.78778 11.08819 34045 ft 462 kts 347°
2026-04-14 13:09 46.85056 11.06778 34067 ft 461 kts 342°
2026-04-14 13:09 46.90966 11.03231 34074 ft 458 kts 334°
2026-04-14 13:10 46.96752 10.99350 34090 ft 457 kts 334°
2026-04-14 13:10 47.02563 10.95562 34090 ft 456 kts 335°
2026-04-14 13:11 47.08371 10.91813 34100 ft 456 kts 336°
2026-04-14 13:11 47.14165 10.88045 34114 ft 455 kts 335°
2026-04-14 13:12 47.19932 10.84248 34115 ft 454 kts 335°
2026-04-14 13:12 47.25690 10.80440 34127 ft 453 kts 335°
2026-04-14 13:13 47.31431 10.76641 34137 ft 452 kts 335°
2026-04-14 13:13 47.37127 10.72873 34135 ft 450 kts 335°
2026-04-14 13:14 47.42873 10.69218 34140 ft 450 kts 337°
2026-04-14 13:14 47.48708 10.65872 34141 ft 449 kts 338°
2026-04-14 13:15 47.54556 10.62565 34143 ft 449 kts 338°
2026-04-14 13:15 47.60375 10.59185 34153 ft 449 kts 338°
2026-04-14 13:16 47.66187 10.55757 34157 ft 449 kts 338°
2026-04-14 13:16 47.71994 10.52322 34161 ft 449 kts 338°
2026-04-14 13:17 47.77801 10.48889 34172 ft 449 kts 338°
2026-04-14 13:17 47.83603 10.45461 34173 ft 449 kts 338°
2026-04-14 13:18 47.89408 10.42019 34171 ft 449 kts 338°
2026-04-14 13:18 47.95213 10.38570 34169 ft 449 kts 338°
2026-04-14 13:19 48.01012 10.35101 34171 ft 449 kts 338°
2026-04-14 13:19 48.06809 10.31629 34173 ft 449 kts 338°
2026-04-14 13:20 48.12569 10.28179 34184 ft 449 kts 338°
2026-04-14 13:20 48.18364 10.24691 34179 ft 448 kts 336°
2026-04-14 13:21 48.23659 10.19828 34185 ft 446 kts 320°
2026-04-14 13:21 48.28485 10.13946 34183 ft 447 kts 320°
2026-04-14 13:22 48.33331 10.08078 34181 ft 447 kts 320°
2026-04-14 13:22 48.38170 10.02208 34181 ft 447 kts 320°
2026-04-14 13:23 48.43005 9.96307 34185 ft 447 kts 320°
2026-04-14 13:23 48.47828 9.90401 34184 ft 447 kts 320°
2026-04-14 13:24 48.52614 9.84529 34183 ft 447 kts 320°
2026-04-14 13:24 48.59833 9.75647 34144 ft 444 kts 320°
2026-04-14 13:25 48.62212 9.72664 33472 ft 443 kts 319°
2026-04-14 13:25 48.64551 9.69624 32694 ft 444 kts 317°
2026-04-14 13:26 48.71421 9.60447 31021 ft 433 kts 317°
2026-04-14 13:26 48.73673 9.57441 30511 ft 429 kts 317°
2026-04-14 13:26 48.75912 9.54468 29958 ft 426 kts 317°
2026-04-14 13:26 48.78136 9.51527 29339 ft 422 kts 317°
2026-04-14 13:27 48.80341 9.48611 28740 ft 419 kts 317°
2026-04-14 13:27 48.82527 9.45716 28147 ft 416 kts 317°
2026-04-14 13:27 48.84697 9.42836 27557 ft 413 kts 317°
2026-04-14 13:27 48.86819 9.40014 26990 ft 410 kts 317°
2026-04-14 13:28 48.88955 9.37171 26429 ft 407 kts 317°
2026-04-14 13:28 48.91151 9.34482 25885 ft 405 kts 324°
2026-04-14 13:28 48.93594 9.32262 25340 ft 404 kts 332°
2026-04-14 13:28 48.96103 9.30372 24805 ft 401 kts 332°
2026-04-14 13:29 48.98601 9.28489 24281 ft 399 kts 332°
2026-04-14 13:29 49.01048 9.26632 23790 ft 397 kts 331°
2026-04-14 13:29 49.03511 9.24752 23171 ft 395 kts 331°
2026-04-14 13:29 49.05963 9.22876 22618 ft 392 kts 331°
2026-04-14 13:30 49.08390 9.21019 22085 ft 389 kts 331°
2026-04-14 13:30 49.10796 9.19184 21567 ft 385 kts 332°
2026-04-14 13:30 49.13186 9.17361 21063 ft 382 kts 332°
2026-04-14 13:30 49.15554 9.15567 20563 ft 378 kts 334°
2026-04-14 13:31 49.18017 9.14188 20073 ft 376 kts 343°
2026-04-14 13:31 49.20581 9.13468 19578 ft 374 kts 353°
2026-04-14 13:31 49.23178 9.13421 19083 ft 372 kts
2026-04-14 13:31 49.25743 9.13802 18593 ft 369 kts
2026-04-14 13:32 49.28285 9.14208 18066 ft 366 kts
2026-04-14 13:32 49.30769 9.14990 17515 ft 363 kts 11°
2026-04-14 13:32 49.33225 9.15833 17234 ft 362 kts 12°
2026-04-14 13:32 49.35680 9.16706 16992 ft 362 kts 12°
2026-04-14 13:33 49.38127 9.17584 16759 ft 361 kts 12°
2026-04-14 13:33 49.40572 9.18468 16529 ft 361 kts 11°
2026-04-14 13:33 49.43017 9.19350 16301 ft 360 kts 11°
2026-04-14 13:33 49.45461 9.20112 16036 ft 356 kts
2026-04-14 13:34 49.50289 9.19053 15476 ft 351 kts 345°
2026-04-14 13:34 49.52666 9.18211 15180 ft 350 kts 346°
2026-04-14 13:34 49.55036 9.17367 14936 ft 349 kts 345°
2026-04-14 13:35 49.57392 9.16524 14690 ft 347 kts 345°
2026-04-14 13:35 49.59745 9.15679 14449 ft 346 kts 345°
2026-04-14 13:35 49.62089 9.14835 14215 ft 345 kts 345°
2026-04-14 13:35 49.64422 9.13996 13974 ft 344 kts 345°
2026-04-14 13:36 49.66750 9.13161 13708 ft 343 kts 345°
2026-04-14 13:36 49.69068 9.12333 13437 ft 342 kts 345°
2026-04-14 13:36 49.71380 9.11505 13174 ft 341 kts 345°
2026-04-14 13:36 49.73683 9.10677 12908 ft 339 kts 345°
2026-04-14 13:37 49.75976 9.09847 12643 ft 338 kts 345°
2026-04-14 13:37 49.78260 9.09016 12403 ft 337 kts 345°
2026-04-14 13:37 49.80538 9.08190 12135 ft 336 kts 345°
2026-04-14 13:37 49.82802 9.07312 11886 ft 334 kts 339°
2026-04-14 13:38 49.84802 9.05667 11639 ft 329 kts 320°
2026-04-14 13:38 49.86333 9.03094 11387 ft 324 kts 301°
2026-04-14 13:38 49.87494 9.00116 11138 ft 323 kts 299°
2026-04-14 13:38 49.88634 8.97128 10883 ft 322 kts 299°
2026-04-14 13:39 49.89769 8.94132 10645 ft 322 kts 299°
2026-04-14 13:39 49.90886 8.91176 10419 ft 311 kts 299°
2026-04-14 13:39 49.91958 8.88343 10293 ft 298 kts 299°
2026-04-14 13:39 49.92990 8.85625 10121 ft 288 kts 299°
2026-04-14 13:40 49.93995 8.82970 9836 ft 284 kts 299°
2026-04-14 13:40 49.94996 8.80329 9572 ft 283 kts 300°
2026-04-14 13:40 49.95882 8.77610 9300 ft 280 kts 291°
2026-04-14 13:40 49.96487 8.74744 9037 ft 279 kts 283°
2026-04-14 13:41 49.96811 8.71813 8781 ft 279 kts 275°
2026-04-14 13:41 49.96860 8.68759 8521 ft 279 kts 268°
2026-04-14 13:41 49.96633 8.65802 8280 ft 279 kts 260°
2026-04-14 13:41 49.96129 8.62887 8087 ft 281 kts 253°
2026-04-14 13:42 49.95447 8.60044 7763 ft 280 kts 251°
2026-04-14 13:42 49.94764 8.57215 7364 ft 279 kts 251°
2026-04-14 13:42 49.94082 8.54393 6977 ft 279 kts 251°
2026-04-14 13:42 49.93402 8.51579 6598 ft 278 kts 252°
2026-04-14 13:43 49.92724 8.48773 6215 ft 277 kts 252°
2026-04-14 13:43 49.92049 8.45976 5848 ft 276 kts 251°
2026-04-14 13:43 49.91383 8.43201 5497 ft 273 kts 251°
2026-04-14 13:43 49.90719 8.40448 5150 ft 271 kts 251°
2026-04-14 13:44 49.90059 8.37718 4780 ft 270 kts 251°
2026-04-14 13:44 49.89412 8.35046 4636 ft 260 kts 251°
2026-04-14 13:44 49.88790 8.32477 4503 ft 249 kts 251°
2026-04-14 13:44 49.88191 8.30016 4384 ft 240 kts 251°
2026-04-14 13:45 49.87607 8.27613 4267 ft 238 kts 251°
2026-04-14 13:45 49.87024 8.25213 4137 ft 238 kts 251°
2026-04-14 13:45 49.86444 8.22821 4028 ft 237 kts 251°
2026-04-14 13:45 49.85863 8.20430 4006 ft 237 kts 251°
2026-04-14 13:46 49.85282 8.18046 4007 ft 235 kts 251°
2026-04-14 13:46 49.84961 8.15682 3991 ft 219 kts 277°
2026-04-14 13:46 49.85491 8.13546 4009 ft 213 kts 311°
2026-04-14 13:46 49.86696 8.12308 4011 ft 209 kts 347°
2026-04-14 13:47 49.88120 8.12410 4011 ft 208 kts 21°
2026-04-14 13:47 49.89305 8.13678 4015 ft 209 kts 41°
2026-04-14 13:47 49.90359 8.15238 4015 ft 210 kts 44°
2026-04-14 13:47 49.91396 8.16835 4015 ft 210 kts 43°
2026-04-14 13:48 49.92421 8.18437 4009 ft 209 kts 43°
2026-04-14 13:48 49.93439 8.20044 4003 ft 208 kts 44°
2026-04-14 13:48 49.94113 8.21105 4016 ft 209 kts 44°
2026-04-14 13:48 49.95132 8.22712 4014 ft 209 kts 46°
2026-04-14 13:49 49.95836 8.24676 4021 ft 209 kts 67°
2026-04-14 13:49 49.96321 8.26721 3928 ft 195 kts 68°
2026-04-14 13:49 49.96783 8.28652 3702 ft 187 kts 67°
2026-04-14 13:49 49.97236 8.30527 3468 ft 184 kts 66°
2026-04-14 13:50 49.97686 8.32383 3217 ft 183 kts 66°
2026-04-14 13:50 49.98134 8.34236 2965 ft 183 kts 67°
2026-04-14 13:50 49.98567 8.36030 2727 ft 170 kts 67°
2026-04-14 13:50 49.98973 8.37713 2506 ft 164 kts 66°
2026-04-14 13:51 49.99371 8.39357 2278 ft 162 kts 66°
2026-04-14 13:51 49.99762 8.40977 2053 ft 160 kts 67°
2026-04-14 13:51 50.00146 8.42573 1835 ft 153 kts 66°
2026-04-14 13:51 50.00511 8.44088 1637 ft 146 kts 66°
2026-04-14 13:52 50.00864 8.45545 1442 ft 143 kts 67°
2026-04-14 13:52 50.01233 8.46979 1257 ft 142 kts 64°
2026-04-14 13:52 50.01599 8.48421 1086 ft 145 kts 68°
2026-04-14 13:52 50.01925 8.49901 896 ft 149 kts 68°
2026-04-14 13:53 50.02283 8.51424 693 ft 150 kts 66°
2026-04-14 13:53 50.02642 8.52929 466 ft 147 kts 68°
2026-04-14 13:53 50.02981 8.54372 338 ft 131 kts 66°
2026-04-14 13:53 50.03257 8.55517 348 ft 90 kts 69°
2026-04-14 13:54 50.03411 8.56149 352 ft 35 kts 64°
2026-04-14 13:54 50.03556 8.56397 352 ft 29 kts 39°
2026-04-14 13:54 50.03664 8.56535 355 ft 17 kts 39°
2026-04-14 13:54 50.03756 8.56658 356 ft 19 kts 45°
2026-04-14 13:55 50.03820 8.56841 358 ft 20 kts 70°
2026-04-14 13:55 50.03867 8.57042 362 ft 19 kts 70°
2026-04-14 13:55 50.03912 8.57230 364 ft 18 kts 69°
2026-04-14 13:55 50.03955 8.57409 369 ft 18 kts 69°
2026-04-14 13:56 50.04000 8.57599 367 ft 19 kts 69°
2026-04-14 13:56 50.04048 8.57798 368 ft 20 kts 70°
2026-04-14 13:56 50.04098 8.58003 371 ft 21 kts 70°
2026-04-14 13:56 50.04158 8.58147 367 ft 16 kts 30°
2026-04-14 13:57 50.04241 8.58205 372 ft 12 kts 14°
2026-04-14 13:57 50.04335 8.58176 370 ft 16 kts 339°
2026-04-14 13:57 50.04443 8.58113 368 ft 18 kts 340°
2026-04-14 13:57 50.04568 8.58041 363 ft 21 kts 340°
2026-04-14 13:58 50.04717 8.57955 358 ft 23 kts 340°
2026-04-14 13:58 50.04831 8.57875 361 ft 13 kts 317°
2026-04-14 13:58 50.04861 8.57788 361 ft 6 kts 294°
2026-04-14 13:58 50.04881 8.57752 358 ft 3 kts 344°
2026-04-14 13:59 50.04899 8.57758 361 ft 2 kts 19°
2026-04-14 13:59 50.04910 8.57765 364 ft 2 kts 22°
2026-04-14 13:59 50.04922 8.57773 361 ft 2 kts 21°
2026-04-14 13:59 50.04937 8.57782 360 ft 2 kts 21°
2026-04-14 14:00 50.04943 8.57785 358 ft 0 kts 21°
2026-04-14 14:00 50.04944 8.57786 358 ft 0 kts 21°